This is the latest recevied weather packets stored in our database for station/object PY1LEO-13. If no packets are shown the sender has not sent any weather packets the latest 10 day(s).
| Time | Temp. | Humidity | Pressure | Rain* | Wind** | Luminosity | Snow |
|---|---|---|---|---|---|---|---|
| 1777784163 | 27.78° C | 54% | 1017.2 hPa | - | - | - | - |
| 1777783863 | 27.78° C | 55% | 1017.2 hPa | - | - | - | - |
| 1777783563 | 27.78° C | 55% | 1017.2 hPa | - | - | - | - |
| 1777783263 | 27.78° C | 55% | 1017.3 hPa | - | - | - | - |
| 1777782963 | 27.78° C | 55% | 1017.4 hPa | - | - | - | - |
| 1777782663 | 27.78° C | 55% | 1017.4 hPa | - | - | - | - |
| 1777782363 | 27.78° C | 53% | 1017.4 hPa | - | - | - | - |
| 1777782063 | 27.78° C | 52% | 1017.3 hPa | - | - | - | - |
| 1777781763 | 27.78° C | 52% | 1017.3 hPa | - | - | - | - |
| 1777781463 | 27.78° C | 53% | 1017.3 hPa | - | - | - | - |
| 1777781163 | 27.78° C | 52% | 1017.3 hPa | - | - | - | - |
| 1777780863 | 27.78° C | 53% | 1017.2 hPa | - | - | - | - |
| 1777780563 | 27.78° C | 53% | 1017.2 hPa | - | - | - | - |
| 1777780263 | 27.78° C | 54% | 1017.2 hPa | - | - | - | - |
| 1777779963 | 27.78° C | 54% | 1017.1 hPa | - | - | - | - |
| 1777779663 | 27.78° C | 55% | 1017.2 hPa | - | - | - | - |
| 1777779363 | 27.78° C | 55% | 1017.2 hPa | - | - | - | - |
| 1777779063 | 27.78° C | 55% | 1017.3 hPa | - | - | - | - |
| 1777778763 | 27.78° C | 56% | 1017.3 hPa | - | - | - | - |
| 1777778463 | 27.78° C | 58% | 1017.3 hPa | - | - | - | - |
| 1777778163 | 27.78° C | 57% | 1017.5 hPa | - | - | - | - |
| 1777777863 | 28.33° C | 60% | 1017.6 hPa | - | - | - | - |
| 1777777563 | 27.78° C | 57% | 1017.5 hPa | - | - | - | - |
| 1777777263 | 28.33° C | 56% | 1017.5 hPa | - | - | - | - |
| 1777776963 | 28.33° C | 55% | 1017.6 hPa | - | - | - | - |
* Rain since midnight (hover to see other rain measurements)
** Current wind speed in m/s (hover to see current wind gust speed)